Weather History for PHMK - October, 2011

Change the Weather History Date:

Thursday, October 20, 2011

  Actual Average Record
Temperature  
Mean Temperature 77 °F -  
Max Temperature 82 °F 83 °F 90 °F (1978)
Min Temperature 72 °F 70 °F 1 °F (2012)
Cooling Degree Days 12    
Growing Degree Days 27 (Base 50)    
Moisture  
Dew Point 63 °F    
Average Humidity 65    
Maximum Humidity 79    
Minimum Humidity 52    
Precipitation  
Precipitation 0.00 in - - ()
Sea Level Pressure  
Sea Level Pressure 30.04 in    
Wind  
Wind Speed 10 mph (NE)    
Max Wind Speed 21 mph    
Max Gust Speed 29 mph    
Visibility 10 miles    
Events      
Averages and records for this station are not official NWS values.
T = Trace of Precipitation, MM = Missing Value Source: NWS Daily Summary

Daily Weather History Graph

Daily Weather History Graph

Search for Another Location

Airport or City:

Trip Planner

Search our weather history database for the weather conditions in past years. The results will help you decide how hot, cold, wet, or windy it might be!

Date:

Astronomy

Oct. 20, 2011 Rise Set
Actual Time 6:25 AM HST 6:00 PM HST
Civil Twilight 6:03 AM HST 6:22 PM HST
Nautical Twilight 5:37 AM HST 6:48 PM HST
Astronomical Twilight 5:11 AM HST 7:14 PM HST
Moon 12:14 AM HST (10/20) 1:29 PM HST (10/20)
Length of Visible Light 12h 19m
Length of Day
11h 34m
Last Quarter, 42% of the Moon is Illuminated
Oct 20
Last Quarter
Oct 26
New
Nov 2
First Quarter
Nov 10
Full
Nov 18
Last Quarter

Hourly Weather History & Observations

Time (HST) Temp. Heat Index Dew Point Humidity Pressure Visibility Wind Dir Wind Speed Gust Speed Precip Events Conditions
12:54 AM 73.0 °F - 64.0 °F 73% 30.04 in 10.0 mi NE 8.1 mph - N/A   Clear
1:54 AM 73.0 °F - 63.0 °F 71% 30.03 in 10.0 mi NNE 8.1 mph - N/A   Clear
2:54 AM 72.0 °F - 62.1 °F 71% 30.02 in 10.0 mi NE 6.9 mph - N/A   Clear
3:54 AM 72.0 °F - 62.1 °F 71% 30.01 in 10.0 mi NNE 8.1 mph - N/A   Clear
5:54 AM 72.0 °F - 63.0 °F 73% 30.03 in 10.0 mi NNE 8.1 mph - N/A   Clear
6:54 AM 72.0 °F - 62.1 °F 71% 30.05 in 10.0 mi NE 8.1 mph - N/A   Clear
7:54 AM 77.0 °F - 62.1 °F 60% 30.06 in 10.0 mi NE 13.8 mph 18.4 mph N/A   Clear
8:54 AM 78.1 °F - 62.1 °F 58% 30.07 in 10.0 mi ENE 13.8 mph 21.9 mph N/A   Partly Cloudy
9:54 AM 81.0 °F 81.9 °F 62.1 °F 52% 30.07 in 10.0 mi NE 13.8 mph 21.9 mph N/A   Clear
10:54 AM 81.0 °F 82.7 °F 64.9 °F 58% 30.06 in 10.0 mi NE 13.8 mph 25.3 mph N/A   Clear
11:54 AM 80.1 °F 81.9 °F 64.9 °F 60% 30.04 in 10.0 mi NE 15.0 mph 23.0 mph N/A   Scattered Clouds
12:54 PM 82.0 °F 83.4 °F 64.0 °F 54% 30.01 in 10.0 mi NE 9.2 mph 24.2 mph N/A   Partly Cloudy
1:54 PM 82.0 °F 83.8 °F 64.9 °F 56% 30.00 in 10.0 mi NNE 11.5 mph 24.2 mph N/A   Scattered Clouds
2:54 PM 81.0 °F 82.7 °F 64.9 °F 58% 29.99 in 10.0 mi ENE 19.6 mph 25.3 mph N/A   Mostly Cloudy
3:54 PM 80.1 °F 81.7 °F 64.0 °F 58% 29.99 in 10.0 mi NE 20.7 mph 27.6 mph N/A   Scattered Clouds
4:54 PM 78.1 °F - 64.9 °F 64% 30.01 in 10.0 mi NE 13.8 mph 28.8 mph N/A   Scattered Clouds
5:54 PM 75.0 °F - 63.0 °F 66% 30.04 in 10.0 mi NE 11.5 mph 17.3 mph N/A   Partly Cloudy
6:54 PM 75.0 °F - 61.0 °F 62% 30.05 in 10.0 mi NNE 6.9 mph - N/A   Mostly Cloudy
7:54 PM 73.9 °F - 61.0 °F 64% 30.08 in 10.0 mi NE 8.1 mph - N/A   Clear
8:54 PM 73.0 °F - 66.0 °F 79% 30.08 in 10.0 mi NE 5.8 mph - N/A   Mostly Cloudy
9:54 PM 73.9 °F - 63.0 °F 68% 30.09 in 10.0 mi NE 9.2 mph - N/A   Mostly Cloudy
10:54 PM 73.9 °F - 64.0 °F 71% 30.09 in 10.0 mi NNE 9.2 mph - N/A   Clear
11:54 PM 73.9 °F - 64.0 °F 71% 30.08 in 10.0 mi NNE 4.6 mph - N/A   Mostly Cloudy